Time,TemperatureF,DewpointF,PressureIn,WindDirection,WindDirectionDegrees,WindSpeedMPH,WindSpeedGustMPH,Humidity,HourlyPrecipIn,Conditions,Clouds,dailyrainin,SoftwareType,DateUTC
2015-07-01 00:03:00,66.0,56.3,29.84,WNW,285,3.5,3.5,71,0.00,CLR,,0.00,WeatherDisplay:10.37,2015-07-01 07:03:00,
2015-07-01 00:08:00,65.7,56.4,29.84,NW,304,1.2,1.2,72,0.00,CLR,,0.00,WeatherDisplay:10.37,2015-07-01 07:08:00,
2015-07-01 00:13:00,65.5,56.2,29.84,West,276,3.5,3.5,72,0.00,CLR,,0.00,WeatherDisplay:10.37,2015-07-01 07:13:00,
2015-07-01 00:18:00,65.0,55.8,29.84,West,276,3.5,3.5,72,0.00,CLR,,0.00,WeatherDisplay:10.37,2015-07-01 07:18:00,
2015-07-01 00:23:00,64.7,55.8,29.84,SSW,210,5.0,5.0,73,0.00,CLR,,0.00,WeatherDisplay:10.37,2015-07-01 07:23:00,
2015-07-01 00:28:00,64.5,56.0,29.84,SW,224,3.5,3.5,74,0.00,CLR,,0.00,WeatherDisplay:10.37,2015-07-01 07:28:00,
2015-07-01 00:33:00,64.3,56.2,29.84,West,259,3.5,3.5,75,0.00,CLR,,0.00,WeatherDisplay:10.37,2015-07-01 07:33:00,
2015-07-01 00:38:00,64.2,56.1,29.84,West,262,3.5,3.5,75,0.00,CLR,,0.00,WeatherDisplay:10.37,2015-07-01 07:38:00,
2015-07-01 00:43:00,64.0,55.9,29.84,West,274,5.8,5.8,75,0.00,CLR,,0.00,WeatherDisplay:10.37,2015-07-01 07:43:00,
2015-07-01 00:48:00,63.8,56.1,29.83,West,269,4.0,4.0,76,0.00,CLR,,0.00,WeatherDisplay:10.37,2015-07-01 07:48:00,
2015-07-01 00:53:00,63.7,56.0,29.84,West,265,1.2,0.0,76,0.00,CLR,,0.00,WeatherDisplay:10.37,2015-07-01 07:53:00,
2015-07-01 00:58:00,63.5,55.8,29.84,West,265,2.3,2.3,76,0.00,CLR,,0.00,WeatherDisplay:10.37,2015-07-01 07:58:00,
2015-07-01 01:03:00,63.6,56.3,29.83,West,265,0.0,0.0,77,0.00,CLR,,0.00,WeatherDisplay:10.37,2015-07-01 08:03:00,
2015-07-01 01:08:00,63.5,56.2,29.83,West,265,0.0,0.0,77,0.00,CLR,,0.00,WeatherDisplay:10.37,2015-07-01 08:08:00,
2015-07-01 01:13:00,63.4,56.1,29.83,West,265,1.2,1.2,77,0.00,CLR,,0.00,WeatherDisplay:10.37,2015-07-01 08:13:00,
2015-07-01 01:18:00,63.4,56.1,29.83,West,265,0.0,0.0,77,0.00,CLR,,0.00,WeatherDisplay:10.37,2015-07-01 08:18:00,
2015-07-01 01:23:00,63.2,55.9,29.83,West,265,0.0,0.0,77,0.00,CLR,,0.00,WeatherDisplay:10.37,2015-07-01 08:23:00,
2015-07-01 01:28:00,63.2,56.2,29.83,West,265,2.3,2.3,78,0.00,CLR,,0.00,WeatherDisplay:10.37,2015-07-01 08:28:00,
2015-07-01 01:33:00,63.3,56.3,29.83,West,265,0.0,0.0,78,0.00,CLR,,0.00,WeatherDisplay:10.37,2015-07-01 08:33:00,
2015-07-01 01:38:00,63.1,55.8,29.83,West,265,0.0,0.0,77,0.00,CLR,,0.00,WeatherDisplay:10.37,2015-07-01 08:38:00,
2015-07-01 01:43:00,62.9,55.9,29.83,West,265,0.0,0.0,78,0.00,CLR,,0.00,WeatherDisplay:10.37,2015-07-01 08:43:00,
2015-07-01 01:48:00,62.9,55.9,29.83,West,265,1.0,1.0,78,0.00,CLR,,0.00,WeatherDisplay:10.37,2015-07-01 08:48:00,
2015-07-01 01:53:00,62.7,55.0,29.83,West,265,3.0,3.0,76,0.00,CLR,,0.00,WeatherDisplay:10.37,2015-07-01 08:53:00,
2015-07-01 01:58:00,62.7,55.0,29.83,SW,218,4.6,4.6,76,0.00,CLR,,0.00,WeatherDisplay:10.37,2015-07-01 08:58:00,
2015-07-01 02:03:00,62.8,55.5,29.83,WSW,239,3.5,3.5,77,0.00,CLR,,0.00,WeatherDisplay:10.37,2015-07-01 09:03:00,
2015-07-01 02:08:00,62.9,55.6,29.83,WSW,239,2.3,2.3,77,0.00,CLR,,0.00,WeatherDisplay:10.37,2015-07-01 09:08:00,
2015-07-01 02:43:00,61.8,55.2,29.83,WNW,283,0.0,0.0,79,0.00,CLR,,0.00,WeatherDisplay:10.37,2015-07-01 09:43:00,
2015-07-01 02:48:00,61.8,55.2,29.83,WNW,283,0.0,0.0,79,0.00,CLR,,0.00,WeatherDisplay:10.37,2015-07-01 09:48:00,
2015-07-01 02:53:00,61.6,55.0,29.83,WNW,283,0.0,0.0,79,0.00,CLR,,0.00,WeatherDisplay:10.37,2015-07-01 09:53:00,
2015-07-01 02:58:00,61.6,55.4,29.83,WNW,283,2.3,2.3,80,0.00,CLR,,0.00,WeatherDisplay:10.37,2015-07-01 09:58:00,
2015-07-01 03:03:00,61.7,55.1,29.82,WNW,283,1.2,1.2,79,0.00,CLR,,0.00,WeatherDisplay:10.37,2015-07-01 10:03:00,
2015-07-01 03:08:00,61.8,55.6,29.82,WNW,283,3.5,3.5,80,0.00,CLR,,0.00,WeatherDisplay:10.37,2015-07-01 10:08:00,
2015-07-01 03:13:00,61.9,55.7,29.83,WSW,238,3.5,3.5,80,0.00,CLR,,0.00,WeatherDisplay:10.37,2015-07-01 10:13:00,
2015-07-01 03:18:00,61.9,55.3,29.83,WSW,238,2.3,2.3,79,0.00,CLR,,0.00,WeatherDisplay:10.37,2015-07-01 10:18:00,
2015-07-01 03:23:00,61.7,55.1,29.83,WSW,238,3.0,3.0,79,0.00,CLR,,0.00,WeatherDisplay:10.37,2015-07-01 10:23:00,
2015-07-01 03:28:00,61.5,55.3,29.83,WSW,239,2.3,2.3,80,0.00,CLR,,0.00,WeatherDisplay:10.37,2015-07-01 10:28:00,
2015-07-01 03:33:00,61.6,55.4,29.83,West,271,3.5,3.5,80,0.00,CLR,,0.00,WeatherDisplay:10.37,2015-07-01 10:33:00,
2015-07-01 03:38:00,61.3,55.1,29.84,West,271,2.3,2.3,80,0.00,CLR,,0.00,WeatherDisplay:10.37,2015-07-01 10:38:00,
2015-07-01 03:43:00,61.4,55.5,29.83,West,271,3.5,3.5,81,0.00,CLR,,0.00,WeatherDisplay:10.37,2015-07-01 10:43:00,
2015-07-01 03:48:00,61.8,55.9,29.83,West,271,2.3,2.3,81,0.00,CLR,,0.00,WeatherDisplay:10.37,2015-07-01 10:48:00,
2015-07-01 03:53:00,61.8,55.6,29.83,NW,306,2.3,2.3,80,0.00,CLR,,0.00,WeatherDisplay:10.37,2015-07-01 10:53:00,
2015-07-01 03:58:00,61.7,55.5,29.83,NW,306,1.0,1.0,80,0.00,CLR,,0.00,WeatherDisplay:10.37,2015-07-01 10:58:00,
2015-07-01 04:03:00,61.7,55.5,29.84,NNW,328,1.2,1.2,80,0.00,CLR,,0.00,WeatherDisplay:10.37,2015-07-01 11:03:00,
2015-07-01 04:08:00,61.4,55.2,29.84,North,5,0.0,0.0,80,0.00,CLR,,0.00,WeatherDisplay:10.37,2015-07-01 11:08:00,
2015-07-01 04:13:00,61.1,54.9,29.84,North,5,2.3,2.3,80,0.00,CLR,,0.00,WeatherDisplay:10.37,2015-07-01 11:13:00,
2015-07-01 04:18:00,60.9,54.3,29.84,North,5,3.5,3.5,79,0.00,CLR,,0.00,WeatherDisplay:10.37,2015-07-01 11:18:00,
2015-07-01 04:23:00,60.9,54.7,29.84,North,5,3.5,3.5,80,0.00,CLR,,0.00,WeatherDisplay:10.37,2015-07-01 11:23:00,
2015-07-01 04:28:00,61.4,55.2,29.84,SSW,209,3.5,3.5,80,0.00,CLR,,0.00,WeatherDisplay:10.37,2015-07-01 11:28:00,
2015-07-01 04:33:00,61.6,55.4,29.84,SSW,209,2.3,2.3,80,0.00,CLR,,0.00,WeatherDisplay:10.37,2015-07-01 11:33:00,
2015-07-01 04:38:00,61.6,55.4,29.84,SW,232,3.5,3.5,80,0.00,CLR,,0.00,WeatherDisplay:10.37,2015-07-01 11:38:00,
2015-07-01 04:43:00,61.7,55.5,29.84,WSW,250,2.3,2.3,80,0.00,CLR,,0.00,WeatherDisplay:10.37,2015-07-01 11:43:00,
2015-07-01 04:48:00,61.6,55.4,29.84,WSW,250,0.0,0.0,80,0.00,CLR,,0.00,WeatherDisplay:10.37,2015-07-01 11:48:00,
2015-07-01 04:53:00,61.4,55.2,29.85,WSW,250,0.0,0.0,80,0.00,CLR,,0.00,WeatherDisplay:10.37,2015-07-01 11:53:00,
2015-07-01 04:58:00,61.3,55.1,29.85,WSW,250,1.2,1.2,80,0.00,CLR,,0.00,WeatherDisplay:10.37,2015-07-01 11:58:00,
2015-07-01 05:03:00,61.0,54.8,29.85,SW,219,3.5,3.5,80,0.00,CLR,,0.00,WeatherDisplay:10.37,2015-07-01 12:03:00,
2015-07-01 05:08:00,60.7,54.5,29.86,SSW,202,0.0,0.0,80,0.00,CLR,,0.00,WeatherDisplay:10.37,2015-07-01 12:08:00,
2015-07-01 05:13:00,60.7,54.8,29.86,SSW,202,0.0,0.0,81,0.00,CLR,,0.00,WeatherDisplay:10.37,2015-07-01 12:13:00,
2015-07-01 05:18:00,60.8,54.9,29.86,SSW,202,2.3,2.3,81,0.00,CLR,,0.00,WeatherDisplay:10.37,2015-07-01 12:18:00,
2015-07-01 05:23:00,60.8,54.9,29.86,SSW,202,2.3,2.3,81,0.00,CLR,,0.00,WeatherDisplay:10.37,2015-07-01 12:23:00,
2015-07-01 05:28:00,60.5,54.6,29.86,SSW,202,2.3,0.0,81,0.00,CLR,,0.00,WeatherDisplay:10.37,2015-07-01 12:28:00,
2015-07-01 05:33:00,60.4,54.5,29.87,SSW,202,0.0,0.0,81,0.00,CLR,,0.00,WeatherDisplay:10.37,2015-07-01 12:33:00,
2015-07-01 05:38:00,60.3,54.8,29.88,SSW,202,0.0,0.0,82,0.00,CLR,,0.00,WeatherDisplay:10.37,2015-07-01 12:38:00,
2015-07-01 05:43:00,60.4,54.9,29.87,WSW,240,3.5,3.5,82,0.00,CLR,,0.00,WeatherDisplay:10.37,2015-07-01 12:43:00,
2015-07-01 05:48:00,60.5,55.0,29.88,WSW,244,2.3,2.3,82,0.00,CLR,,0.00,WeatherDisplay:10.37,2015-07-01 12:48:00,
2015-07-01 05:53:00,60.5,55.0,29.88,WSW,244,0.0,0.0,82,0.00,CLR,,0.00,WeatherDisplay:10.37,2015-07-01 12:53:00,
2015-07-01 05:58:00,60.5,55.0,29.88,WSW,244,0.0,0.0,82,0.00,CLR,,0.00,WeatherDisplay:10.37,2015-07-01 12:58:00,
2015-07-01 06:03:00,60.7,55.2,29.88,WSW,244,0.0,0.0,82,0.00,CLR,,0.00,WeatherDisplay:10.37,2015-07-01 13:03:00,
2015-07-01 06:08:00,60.9,55.4,29.89,WSW,244,0.0,0.0,82,0.00,CLR,,0.00,WeatherDisplay:10.37,2015-07-01 13:08:00,
2015-07-01 06:13:00,61.1,55.6,29.89,WSW,244,0.0,0.0,82,0.00,CLR,,0.00,WeatherDisplay:10.37,2015-07-01 13:13:00,
2015-07-01 06:18:00,60.8,55.3,29.90,WNW,297,3.0,3.0,82,0.00,CLR,,0.00,WeatherDisplay:10.37,2015-07-01 13:18:00,
2015-07-01 06:23:00,60.9,55.4,29.90,NNW,338,2.3,2.3,82,0.00,CLR,,0.00,WeatherDisplay:10.37,2015-07-01 13:23:00,
2015-07-01 06:28:00,61.4,55.9,29.90,NNW,338,1.2,1.2,82,0.00,CLR,,0.00,WeatherDisplay:10.37,2015-07-01 13:28:00,
2015-07-01 06:33:00,61.8,55.9,29.90,NNW,338,2.3,2.3,81,0.00,CLR,,0.00,WeatherDisplay:10.37,2015-07-01 13:33:00,
2015-07-01 06:38:00,62.1,56.2,29.91,NNW,338,2.3,2.3,81,0.00,CLR,,0.00,WeatherDisplay:10.37,2015-07-01 13:38:00,
2015-07-01 06:43:00,61.7,55.1,29.91,NNW,338,2.3,2.3,79,0.00,CLR,,0.00,WeatherDisplay:10.37,2015-07-01 13:43:00,
2015-07-01 06:48:00,61.2,54.6,29.91,West,267,3.5,3.5,79,0.00,CLR,,0.00,WeatherDisplay:10.37,2015-07-01 13:48:00,
2015-07-01 06:53:00,61.2,54.6,29.92,West,267,0.0,0.0,79,0.00,CLR,,0.00,WeatherDisplay:10.37,2015-07-01 13:53:00,
2015-07-01 06:58:00,61.4,55.2,29.92,West,267,0.0,0.0,80,0.00,CLR,,0.00,WeatherDisplay:10.37,2015-07-01 13:58:00,
2015-07-01 07:03:00,61.5,55.3,29.92,West,267,0.0,0.0,80,0.00,CLR,,0.00,WeatherDisplay:10.37,2015-07-01 14:03:00,
2015-07-01 07:08:00,61.8,55.6,29.91,West,267,0.0,0.0,80,0.00,CLR,,0.00,WeatherDisplay:10.37,2015-07-01 14:08:00,
2015-07-01 07:13:00,62.4,56.1,29.91,SW,229,5.0,5.0,80,0.00,CLR,,0.00,WeatherDisplay:10.37,2015-07-01 14:13:00,
2015-07-01 07:18:00,62.7,55.7,29.91,WSW,241,4.6,4.6,78,0.00,CLR,,0.00,WeatherDisplay:10.37,2015-07-01 14:18:00,
2015-07-01 07:23:00,62.9,55.9,29.91,WSW,242,0.0,0.0,78,0.00,CLR,,0.00,WeatherDisplay:10.37,2015-07-01 14:23:00,
2015-07-01 07:28:00,63.2,56.2,29.92,WSW,242,1.0,1.0,78,0.00,CLR,,0.00,WeatherDisplay:10.37,2015-07-01 14:28:00,
2015-07-01 07:33:00,63.5,56.5,29.92,West,269,3.5,3.5,78,0.00,CLR,,0.00,WeatherDisplay:10.37,2015-07-01 14:33:00,
2015-07-01 07:38:00,63.7,56.4,29.91,NW,304,1.2,0.0,77,0.00,CLR,,0.00,WeatherDisplay:10.37,2015-07-01 14:38:00,
2015-07-01 07:43:00,64.0,56.6,29.92,South,188,2.3,2.3,77,0.00,CLR,,0.00,WeatherDisplay:10.37,2015-07-01 14:43:00,
2015-07-01 07:48:00,64.5,56.8,29.92,South,188,0.0,0.0,76,0.00,CLR,,0.00,WeatherDisplay:10.37,2015-07-01 14:48:00,
2015-07-01 07:53:00,65.1,57.3,29.92,South,190,2.3,2.3,76,0.00,CLR,,0.00,WeatherDisplay:10.37,2015-07-01 14:53:00,
2015-07-01 07:58:00,65.8,57.3,29.91,WSW,258,3.5,3.5,74,0.00,CLR,,0.00,WeatherDisplay:10.37,2015-07-01 14:58:00,
2015-07-01 08:03:00,66.6,57.7,29.91,West,276,2.3,2.3,73,0.00,CLR,,0.00,WeatherDisplay:10.37,2015-07-01 15:03:00,
2015-07-01 08:08:00,67.4,58.1,29.91,West,271,3.5,3.5,72,0.00,CLR,,0.00,WeatherDisplay:10.37,2015-07-01 15:08:00,
2015-07-01 08:13:00,68.3,58.1,29.91,NW,304,1.2,1.2,70,0.00,CLR,,0.00,WeatherDisplay:10.37,2015-07-01 15:13:00,
2015-07-01 08:18:00,68.8,58.2,29.91,NW,304,2.0,2.0,69,0.00,CLR,,0.00,WeatherDisplay:10.37,2015-07-01 15:18:00,
2015-07-01 08:23:00,69.2,58.2,29.91,West,274,3.5,3.5,68,0.00,CLR,,0.00,WeatherDisplay:10.37,2015-07-01 15:23:00,
2015-07-01 08:28:00,69.8,58.3,29.91,WNW,282,2.3,2.3,67,0.00,CLR,,0.00,WeatherDisplay:10.37,2015-07-01 15:28:00,
2015-07-01 08:33:00,70.1,58.6,29.91,West,273,2.3,2.3,67,0.00,CLR,,0.00,WeatherDisplay:10.37,2015-07-01 15:33:00,
2015-07-01 08:38:00,70.5,58.2,29.92,SW,225,5.0,5.0,65,0.00,CLR,,0.00,WeatherDisplay:10.37,2015-07-01 15:38:00,
2015-07-01 08:43:00,70.9,59.0,29.92,SW,215,3.5,3.5,66,0.00,CLR,,0.00,WeatherDisplay:10.37,2015-07-01 15:43:00,
2015-07-01 08:48:00,71.2,59.3,29.92,SSW,213,3.5,3.5,66,0.00,CLR,,0.00,WeatherDisplay:10.37,2015-07-01 15:48:00,
2015-07-01 08:53:00,71.9,59.5,29.92,SSW,211,5.8,5.8,65,0.00,CLR,,0.00,WeatherDisplay:10.37,2015-07-01 15:53:00,
2015-07-01 08:58:00,72.6,58.8,29.92,SW,219,5.0,5.0,62,0.00,CLR,,0.00,WeatherDisplay:10.37,2015-07-01 15:58:00,
2015-07-01 09:03:00,72.6,58.4,29.92,SW,231,4.0,4.0,61,0.00,CLR,,0.00,WeatherDisplay:10.37,2015-07-01 16:03:00,
2015-07-01 09:08:00,73.6,58.9,29.92,SSW,210,7.0,7.0,60,0.00,CLR,,0.00,WeatherDisplay:10.37,2015-07-01 16:08:00,
2015-07-01 09:13:00,74.1,58.9,29.92,SW,223,5.8,5.8,59,0.00,CLR,,0.00,WeatherDisplay:10.37,2015-07-01 16:13:00,
2015-07-01 09:18:00,75.0,58.7,29.92,West,259,4.6,4.6,57,0.00,CLR,,0.00,WeatherDisplay:10.37,2015-07-01 16:18:00,
2015-07-01 09:23:00,75.0,58.2,29.92,WNW,287,4.6,4.6,56,0.00,CLR,,0.00,WeatherDisplay:10.37,2015-07-01 16:23:00,
2015-07-01 09:28:00,75.0,58.2,29.92,WSW,240,3.5,3.5,56,0.00,CLR,,0.00,WeatherDisplay:10.37,2015-07-01 16:28:00,
2015-07-01 09:33:00,75.6,58.3,29.92,WNW,302,3.5,3.5,55,0.00,CLR,,0.00,WeatherDisplay:10.37,2015-07-01 16:33:00,
2015-07-01 09:38:00,76.5,58.6,29.92,West,275,4.6,4.6,54,0.00,CLR,,0.00,WeatherDisplay:10.37,2015-07-01 16:38:00,
2015-07-01 09:43:00,77.4,58.4,29.92,West,271,3.5,3.5,52,0.00,CLR,,0.00,WeatherDisplay:10.37,2015-07-01 16:43:00,
2015-07-01 09:48:00,77.8,57.7,29.92,West,281,3.5,3.5,50,0.00,CLR,,0.00,WeatherDisplay:10.37,2015-07-01 16:48:00,
2015-07-01 09:53:00,78.4,58.8,29.92,SW,234,2.3,2.3,51,0.00,CLR,,0.00,WeatherDisplay:10.37,2015-07-01 16:53:00,
2015-07-01 09:58:00,79.5,57.5,29.91,WNW,293,3.5,3.5,47,0.00,CLR,,0.00,WeatherDisplay:10.37,2015-07-01 16:58:00,
2015-07-01 10:03:00,79.6,57.0,29.91,WNW,296,2.3,2.3,46,0.00,CLR,,0.00,WeatherDisplay:10.37,2015-07-01 17:03:00,
2015-07-01 10:08:00,79.9,57.3,29.91,West,269,3.5,3.5,46,0.00,CLR,,0.00,WeatherDisplay:10.37,2015-07-01 17:08:00,
2015-07-01 10:13:00,80.1,56.2,29.91,WNW,287,3.5,3.5,44,0.00,CLR,,0.00,WeatherDisplay:10.37,2015-07-01 17:13:00,
2015-07-01 10:18:00,80.0,56.7,29.91,West,260,3.5,3.5,45,0.00,CLR,,0.00,WeatherDisplay:10.37,2015-07-01 17:18:00,
2015-07-01 10:23:00,80.5,57.2,29.91,WSW,249,3.5,3.5,45,0.00,CLR,,0.00,WeatherDisplay:10.37,2015-07-01 17:23:00,
2015-07-01 10:28:00,80.9,56.9,29.91,SW,220,3.5,3.5,44,0.00,CLR,,0.00,WeatherDisplay:10.37,2015-07-01 17:28:00,
2015-07-01 10:33:00,80.8,57.5,29.91,West,259,2.3,2.3,45,0.00,CLR,,0.00,WeatherDisplay:10.37,2015-07-01 17:33:00,
2015-07-01 10:38:00,80.8,56.9,29.92,SSW,209,5.0,5.0,44,0.00,CLR,,0.00,WeatherDisplay:10.37,2015-07-01 17:38:00,
2015-07-01 10:43:00,81.9,57.2,29.91,SW,231,5.8,5.8,43,0.00,CLR,,0.00,WeatherDisplay:10.37,2015-07-01 17:43:00,
2015-07-01 10:48:00,81.9,57.2,29.91,SSW,212,9.2,9.2,43,0.00,CLR,,0.00,WeatherDisplay:10.37,2015-07-01 17:48:00,
2015-07-01 10:53:00,83.0,56.9,29.91,SW,225,4.6,4.6,41,0.00,CLR,,0.00,WeatherDisplay:10.37,2015-07-01 17:53:00,
2015-07-01 10:58:00,83.4,55.8,29.91,WNW,285,4.0,4.0,39,0.00,CLR,,0.00,WeatherDisplay:10.37,2015-07-01 17:58:00,
2015-07-01 11:03:00,83.3,55.0,29.91,WSW,256,2.3,2.3,38,0.00,CLR,,0.00,WeatherDisplay:10.37,2015-07-01 18:03:00,
2015-07-01 11:08:00,83.9,55.6,29.91,SW,226,5.0,5.0,38,0.00,CLR,,0.00,WeatherDisplay:10.37,2015-07-01 18:08:00,
2015-07-01 11:13:00,84.1,55.0,29.92,SSW,192,9.2,9.2,37,0.00,CLR,,0.00,WeatherDisplay:10.37,2015-07-01 18:13:00,
2015-07-01 11:18:00,84.3,54.4,29.92,SW,229,5.8,5.8,36,0.00,CLR,,0.00,WeatherDisplay:10.37,2015-07-01 18:18:00,
2015-07-01 11:23:00,84.5,53.0,29.92,West,281,5.8,5.8,34,0.00,CLR,,0.00,WeatherDisplay:10.37,2015-07-01 18:23:00,
2015-07-01 11:28:00,84.8,54.1,29.92,SW,230,3.5,3.5,35,0.00,CLR,,0.00,WeatherDisplay:10.37,2015-07-01 18:28:00,
2015-07-01 11:33:00,85.4,54.6,29.92,SW,230,3.5,3.5,35,0.00,CLR,,0.00,WeatherDisplay:10.37,2015-07-01 18:33:00,
2015-07-01 11:38:00,86.0,53.5,29.92,SW,222,2.3,2.3,33,0.00,CLR,,0.00,WeatherDisplay:10.37,2015-07-01 18:38:00,
2015-07-01 11:43:00,87.4,52.2,29.91,SSW,208,3.5,3.5,30,0.00,CLR,,0.00,WeatherDisplay:10.37,2015-07-01 18:43:00,
2015-07-01 11:48:00,87.0,52.7,29.91,WNW,283,3.5,3.5,31,0.00,CLR,,0.00,WeatherDisplay:10.37,2015-07-01 18:48:00,
2015-07-01 11:53:00,87.4,53.1,29.91,West,267,3.5,3.5,31,0.00,CLR,,0.00,WeatherDisplay:10.37,2015-07-01 18:53:00,
2015-07-01 11:58:00,87.4,53.1,29.90,NW,313,2.3,2.3,31,0.00,CLR,,0.00,WeatherDisplay:10.37,2015-07-01 18:58:00,
2015-07-01 12:03:00,87.9,52.6,29.91,West,281,3.0,3.0,30,0.00,CLR,,0.00,WeatherDisplay:10.37,2015-07-01 19:03:00,
2015-07-01 12:08:00,87.9,52.6,29.91,WSW,246,3.5,3.5,30,0.00,CLR,,0.00,WeatherDisplay:10.37,2015-07-01 19:08:00,
2015-07-01 12:13:00,88.9,53.5,29.91,WSW,237,4.0,4.0,30,0.00,CLR,,0.00,WeatherDisplay:10.37,2015-07-01 19:13:00,
2015-07-01 12:18:00,89.2,53.7,29.91,West,263,4.0,4.0,30,0.00,CLR,,0.00,WeatherDisplay:10.37,2015-07-01 19:18:00,
2015-07-01 12:23:00,89.2,53.7,29.90,WNW,283,1.2,1.2,30,0.00,CLR,,0.00,WeatherDisplay:10.37,2015-07-01 19:23:00,
2015-07-01 12:28:00,90.1,53.6,29.90,WNW,294,3.5,3.5,29,0.00,CLR,,0.00,WeatherDisplay:10.37,2015-07-01 19:28:00,
2015-07-01 12:33:00,91.4,52.7,29.90,WNW,296,2.3,2.3,27,0.00,CLR,,0.00,WeatherDisplay:10.37,2015-07-01 19:33:00,
2015-07-01 12:38:00,92.2,50.2,29.90,West,276,4.0,4.0,24,0.00,CLR,,0.00,WeatherDisplay:10.37,2015-07-01 19:38:00,
2015-07-01 12:43:00,90.9,46.8,29.90,WSW,257,3.5,3.5,22,0.00,CLR,,0.00,WeatherDisplay:10.37,2015-07-01 19:43:00,
2015-07-01 12:48:00,91.6,50.8,29.90,WSW,237,4.6,4.6,25,0.00,CLR,,0.00,WeatherDisplay:10.37,2015-07-01 19:48:00,
2015-07-01 12:53:00,93.2,51.0,29.89,NNW,328,3.5,3.5,24,0.00,CLR,,0.00,WeatherDisplay:10.37,2015-07-01 19:53:00,
2015-07-01 12:58:00,94.0,49.4,29.89,North,355,3.5,3.5,22,0.00,CLR,,0.00,WeatherDisplay:10.37,2015-07-01 19:58:00,
2015-07-01 13:03:00,94.1,49.4,29.89,WNW,299,3.5,3.5,22,0.00,CLR,,0.00,WeatherDisplay:10.37,2015-07-01 20:03:00,
2015-07-01 13:08:00,95.7,49.5,29.88,West,261,2.3,2.3,21,0.00,CLR,,0.00,WeatherDisplay:10.37,2015-07-01 20:08:00,
2015-07-01 13:13:00,96.4,48.8,29.88,WNW,291,4.0,4.0,20,0.00,CLR,,0.00,WeatherDisplay:10.37,2015-07-01 20:13:00,
2015-07-01 13:18:00,95.1,47.7,29.88,North,360,3.5,3.5,20,0.00,CLR,,0.00,WeatherDisplay:10.37,2015-07-01 20:18:00,
2015-07-01 13:23:00,94.7,48.7,29.88,NNE,19,3.5,3.5,21,0.00,CLR,,0.00,WeatherDisplay:10.37,2015-07-01 20:23:00,
2015-07-01 13:28:00,94.9,46.2,29.88,East,81,3.5,3.5,19,0.00,CLR,,0.00,WeatherDisplay:10.37,2015-07-01 20:28:00,
2015-07-01 13:33:00,95.0,46.3,29.88,West,260,3.5,3.5,19,0.00,CLR,,0.00,WeatherDisplay:10.37,2015-07-01 20:33:00,
2015-07-01 13:38:00,94.8,48.8,29.88,SW,233,5.8,5.8,21,0.00,CLR,,0.00,WeatherDisplay:10.37,2015-07-01 20:38:00,
2015-07-01 13:43:00,94.7,47.4,29.88,WSW,242,3.5,3.5,20,0.00,CLR,,0.00,WeatherDisplay:10.37,2015-07-01 20:43:00,
2015-07-01 13:48:00,94.6,46.0,29.88,WSW,250,1.2,0.0,19,0.00,CLR,,0.00,WeatherDisplay:10.37,2015-07-01 20:48:00,
2015-07-01 13:53:00,95.8,42.4,29.88,South,175,11.5,11.5,16,0.00,CLR,,0.00,WeatherDisplay:10.37,2015-07-01 20:53:00,
2015-07-01 13:58:00,96.5,39.5,29.88,SSW,196,13.8,13.8,14,0.00,CLR,,0.00,WeatherDisplay:10.37,2015-07-01 20:58:00,
2015-07-01 14:03:00,96.6,39.6,29.88,WSW,243,11.5,11.5,14,0.00,CLR,,0.00,WeatherDisplay:10.37,2015-07-01 21:03:00,
2015-07-01 14:08:00,96.6,41.4,29.88,SSW,211,16.1,16.1,15,0.00,CLR,,0.00,WeatherDisplay:10.37,2015-07-01 21:08:00,
2015-07-01 14:13:00,96.8,52.9,29.88,West,281,12.7,12.7,23,0.00,CLR,,0.00,WeatherDisplay:10.37,2015-07-01 21:13:00,
2015-07-01 14:18:00,97.2,54.4,29.88,WSW,251,15.0,15.0,24,0.00,CLR,,0.00,WeatherDisplay:10.37,2015-07-01 21:18:00,
2015-07-01 14:23:00,96.3,56.9,29.88,WNW,290,16.1,16.1,27,0.00,CLR,,0.00,WeatherDisplay:10.37,2015-07-01 21:23:00,
2015-07-01 14:28:00,94.5,56.4,29.88,NW,311,12.7,12.7,28,0.00,CLR,,0.00,WeatherDisplay:10.37,2015-07-01 21:28:00,
2015-07-01 14:33:00,93.5,57.4,29.88,WNW,284,13.8,13.8,30,0.00,CLR,,0.00,WeatherDisplay:10.37,2015-07-01 21:33:00,
2015-07-01 14:38:00,92.9,57.8,29.88,WNW,297,11.5,11.5,31,0.00,CLR,,0.00,WeatherDisplay:10.37,2015-07-01 21:38:00,
2015-07-01 14:43:00,93.3,58.2,29.88,NW,322,12.7,12.7,31,0.00,CLR,,0.00,WeatherDisplay:10.37,2015-07-01 21:43:00,
2015-07-01 14:48:00,92.2,57.2,29.88,WNW,283,12.0,12.0,31,0.00,CLR,,0.00,WeatherDisplay:10.37,2015-07-01 21:48:00,
2015-07-01 14:53:00,91.7,57.7,29.88,WNW,301,11.5,11.5,32,0.00,CLR,,0.00,WeatherDisplay:10.37,2015-07-01 21:53:00,
2015-07-01 14:58:00,91.1,58.0,29.88,NW,323,11.5,11.5,33,0.00,CLR,,0.00,WeatherDisplay:10.37,2015-07-01 21:58:00,
2015-07-01 15:03:00,90.8,56.9,29.88,WNW,288,11.5,11.5,32,0.00,CLR,,0.00,WeatherDisplay:10.37,2015-07-01 22:03:00,
2015-07-01 15:08:00,90.8,56.9,29.88,West,277,13.0,13.0,32,0.00,CLR,,0.00,WeatherDisplay:10.37,2015-07-01 22:08:00,
2015-07-01 15:13:00,90.3,56.4,29.88,NW,320,12.7,12.7,32,0.00,CLR,,0.00,WeatherDisplay:10.37,2015-07-01 22:13:00,
2015-07-01 15:18:00,90.1,55.4,29.88,West,264,10.4,10.4,31,0.00,CLR,,0.00,WeatherDisplay:10.37,2015-07-01 22:18:00,
2015-07-01 15:23:00,89.5,54.9,29.88,NW,312,11.5,11.5,31,0.00,CLR,,0.00,WeatherDisplay:10.37,2015-07-01 22:23:00,
2015-07-01 15:28:00,88.4,56.5,29.88,West,273,16.1,16.1,34,0.00,CLR,,0.00,WeatherDisplay:10.37,2015-07-01 22:28:00,
2015-07-01 15:33:00,87.7,56.7,29.88,WNW,294,10.4,10.4,35,0.00,CLR,,0.00,WeatherDisplay:10.37,2015-07-01 22:33:00,
2015-07-01 15:38:00,87.4,57.2,29.88,WNW,284,12.7,12.7,36,0.00,CLR,,0.00,WeatherDisplay:10.37,2015-07-01 22:38:00,
2015-07-01 15:43:00,87.0,58.3,29.88,WNW,288,13.8,13.8,38,0.00,CLR,,0.00,WeatherDisplay:10.37,2015-07-01 22:43:00,
2015-07-01 15:48:00,86.1,58.2,29.88,West,267,6.9,6.9,39,0.00,CLR,,0.00,WeatherDisplay:10.37,2015-07-01 22:48:00,
2015-07-01 15:53:00,86.3,58.4,29.88,WNW,290,6.9,6.9,39,0.00,CLR,,0.00,WeatherDisplay:10.37,2015-07-01 22:53:00,
2015-07-01 15:58:00,86.3,58.4,29.88,WNW,292,15.0,15.0,39,0.00,CLR,,0.00,WeatherDisplay:10.37,2015-07-01 22:58:00,
2015-07-01 16:03:00,85.6,58.5,29.88,WNW,284,12.0,12.0,40,0.00,CLR,,0.00,WeatherDisplay:10.37,2015-07-01 23:03:00,
2015-07-01 16:08:00,85.1,58.8,29.88,West,264,10.4,10.4,41,0.00,CLR,,0.00,WeatherDisplay:10.37,2015-07-01 23:08:00,
2015-07-01 16:13:00,84.8,59.2,29.88,WNW,293,11.5,11.5,42,0.00,CLR,,0.00,WeatherDisplay:10.37,2015-07-01 23:13:00,
2015-07-01 16:18:00,84.8,59.2,29.88,WSW,257,8.1,8.1,42,0.00,CLR,,0.00,WeatherDisplay:10.37,2015-07-01 23:18:00,
2015-07-01 16:23:00,84.7,59.7,29.88,NW,305,9.2,9.2,43,0.00,CLR,,0.00,WeatherDisplay:10.37,2015-07-01 23:23:00,
2015-07-01 16:28:00,85.0,60.6,29.88,NW,304,9.2,9.2,44,0.00,CLR,,0.00,WeatherDisplay:10.37,2015-07-01 23:28:00,
2015-07-01 16:33:00,85.0,59.3,29.88,WNW,288,11.5,11.5,42,0.00,CLR,,0.00,WeatherDisplay:10.37,2015-07-01 23:33:00,
2015-07-01 16:38:00,84.4,60.1,29.88,NW,312,9.2,9.2,44,0.00,CLR,,0.00,WeatherDisplay:10.37,2015-07-01 23:38:00,
2015-07-01 16:43:00,84.0,59.7,29.87,West,267,8.0,8.0,44,0.00,CLR,,0.00,WeatherDisplay:10.37,2015-07-01 23:43:00,
2015-07-01 16:48:00,83.7,59.5,29.87,WNW,288,9.2,9.2,44,0.00,CLR,,0.00,WeatherDisplay:10.37,2015-07-01 23:48:00,
2015-07-01 16:53:00,83.6,59.4,29.87,West,273,4.6,4.6,44,0.00,CLR,,0.00,WeatherDisplay:10.37,2015-07-01 23:53:00,
2015-07-01 16:58:00,83.8,59.6,29.88,NW,306,3.5,3.5,44,0.00,CLR,,0.00,WeatherDisplay:10.37,2015-07-01 23:58:00,
2015-07-01 17:03:00,83.8,59.6,29.87,West,278,6.0,6.0,44,0.00,CLR,,0.00,WeatherDisplay:10.37,2015-07-02 00:03:00,
2015-07-01 17:08:00,83.9,59.7,29.87,West,275,4.0,4.0,44,0.00,CLR,,0.00,WeatherDisplay:10.37,2015-07-02 00:08:00,
2015-07-01 17:13:00,84.0,58.4,29.87,NW,306,5.0,5.0,42,0.00,CLR,,0.00,WeatherDisplay:10.37,2015-07-02 00:13:00,
2015-07-01 17:18:00,84.6,59.0,29.87,West,267,4.6,4.6,42,0.00,CLR,,0.00,WeatherDisplay:10.37,2015-07-02 00:18:00,
2015-07-01 17:23:00,85.0,58.7,29.86,SW,236,5.8,5.8,41,0.00,CLR,,0.00,WeatherDisplay:10.37,2015-07-02 00:23:00,
2015-07-01 17:28:00,85.3,58.9,29.86,West,262,4.6,4.6,41,0.00,CLR,,0.00,WeatherDisplay:10.37,2015-07-02 00:28:00,
2015-07-01 17:33:00,85.5,59.1,29.87,WNW,282,5.0,5.0,41,0.00,CLR,,0.00,WeatherDisplay:10.37,2015-07-02 00:33:00,
2015-07-01 17:38:00,84.9,58.6,29.86,WNW,289,4.6,4.6,41,0.00,CLR,,0.00,WeatherDisplay:10.37,2015-07-02 00:38:00,
2015-07-01 17:43:00,84.8,59.2,29.86,NW,318,8.1,8.1,42,0.00,CLR,,0.00,WeatherDisplay:10.37,2015-07-02 00:43:00,
2015-07-01 17:48:00,85.4,59.0,29.85,SW,218,4.6,4.6,41,0.00,CLR,,0.00,WeatherDisplay:10.37,2015-07-02 00:48:00,
2015-07-01 17:53:00,85.8,58.0,29.86,WNW,299,7.0,7.0,39,0.00,CLR,,0.00,WeatherDisplay:10.37,2015-07-02 00:53:00,
2015-07-01 17:58:00,85.0,58.0,29.86,West,280,9.2,9.2,40,0.00,CLR,,0.00,WeatherDisplay:10.37,2015-07-02 00:58:00,
2015-07-01 18:03:00,84.5,58.2,29.86,WNW,298,5.8,5.8,41,0.00,CLR,,0.00,WeatherDisplay:10.37,2015-07-02 01:03:00,
2015-07-01 18:08:00,84.1,58.5,29.86,West,273,5.8,5.8,42,0.00,CLR,,0.00,WeatherDisplay:10.37,2015-07-02 01:08:00,
2015-07-01 18:13:00,83.5,58.6,29.87,WNW,292,6.9,6.9,43,0.00,CLR,,0.00,WeatherDisplay:10.37,2015-07-02 01:13:00,
2015-07-01 18:18:00,83.6,58.1,29.86,WNW,290,10.0,10.0,42,0.00,CLR,,0.00,WeatherDisplay:10.37,2015-07-02 01:18:00,
2015-07-01 18:23:00,84.2,57.9,29.86,NW,312,9.2,9.2,41,0.00,CLR,,0.00,WeatherDisplay:10.37,2015-07-02 01:23:00,
2015-07-01 18:28:00,84.1,57.9,29.86,West,281,5.8,5.8,41,0.00,CLR,,0.00,WeatherDisplay:10.37,2015-07-02 01:28:00,
2015-07-01 18:33:00,83.9,58.3,29.86,WNW,293,6.9,6.9,42,0.00,CLR,,0.00,WeatherDisplay:10.37,2015-07-02 01:33:00,
2015-07-01 18:38:00,83.9,58.3,29.86,West,260,6.9,6.9,42,0.00,CLR,,0.00,WeatherDisplay:10.37,2015-07-02 01:38:00,
2015-07-01 18:43:00,83.7,58.2,29.87,WNW,300,6.0,6.0,42,0.00,CLR,,0.00,WeatherDisplay:10.37,2015-07-02 01:43:00,
2015-07-01 18:48:00,83.3,57.8,29.87,West,275,5.8,5.8,42,0.00,CLR,,0.00,WeatherDisplay:10.37,2015-07-02 01:48:00,